ADB75T EKCH-EGLL

Flight info

Callsign ADB75T
Flight time N/A
Altitude 34000
Route LANGO DCT ABNED L980 LOGAN
Aircraft A225/J-SCDFGHIRUWXYZ/LB1

Departure

Time 2026-04-23 14:33
Airport Copenhagen Kastrup Airport (EKCH)

Arrival

Time N/A
Airport London Heathrow Airport (EGLL)
Time Latitude Longitude Altitude Speed Heading
2026-04-23 13:16 55.61718 12.67191 33 ft 0 kts 79°
2026-04-23 14:10 55.61718 12.67190 33 ft 2 kts 79°
2026-04-23 14:11 55.61714 12.67161 33 ft 2 kts 78°
2026-04-23 14:11 55.61711 12.67133 31 ft 2 kts 78°
2026-04-23 14:11 55.61706 12.67105 32 ft 2 kts 53°
2026-04-23 14:11 55.61694 12.67085 30 ft 2 kts 34°
2026-04-23 14:12 55.61680 12.67070 31 ft 2 kts 26°
2026-04-23 14:12 55.61665 12.67059 30 ft 2 kts 19°
2026-04-23 14:12 55.61649 12.67051 30 ft 2 kts
2026-04-23 14:12 55.61632 12.67054 31 ft 2 kts 348°
2026-04-23 14:13 55.61628 12.67056 31 ft 0 kts 348°
2026-04-23 14:23 55.61641 12.67051 33 ft 5 kts 349°
2026-04-23 14:23 55.61696 12.67032 33 ft 11 kts 349°
2026-04-23 14:24 55.61791 12.67001 33 ft 16 kts 350°
2026-04-23 14:24 55.61884 12.66924 33 ft 13 kts 291°
2026-04-23 14:24 55.61875 12.66754 33 ft 16 kts 257°
2026-04-23 14:24 55.61854 12.66558 33 ft 14 kts 259°
2026-04-23 14:25 55.61809 12.66421 33 ft 12 kts 202°
2026-04-23 14:25 55.61717 12.66363 33 ft 16 kts 212°
2026-04-23 14:25 55.61644 12.66191 34 ft 17 kts 254°
2026-04-23 14:25 55.61657 12.65981 35 ft 19 kts 295°
2026-04-23 14:26 55.61731 12.65770 35 ft 21 kts 303°
2026-04-23 14:26 55.61823 12.65526 33 ft 26 kts 303°
2026-04-23 14:26 55.61920 12.65260 32 ft 21 kts 303°
2026-04-23 14:26 55.61998 12.65054 32 ft 14 kts 303°
2026-04-23 14:27 55.62002 12.64955 33 ft 7 kts 245°
2026-04-23 14:27 55.61966 12.64900 33 ft 7 kts 213°
2026-04-23 14:27 55.61902 12.64824 33 ft 15 kts 213°
2026-04-23 14:27 55.61800 12.64704 33 ft 21 kts 213°
2026-04-23 14:28 55.61662 12.64550 33 ft 26 kts 213°
2026-04-23 14:28 55.61503 12.64364 33 ft 25 kts 214°
2026-04-23 14:28 55.61348 12.64188 33 ft 25 kts 213°
2026-04-23 14:28 55.61189 12.64005 33 ft 30 kts 213°
2026-04-23 14:29 55.61004 12.63790 33 ft 34 kts 213°
2026-04-23 14:29 55.60823 12.63585 33 ft 30 kts 212°
2026-04-23 14:29 55.60649 12.63376 33 ft 27 kts 218°
2026-04-23 14:29 55.60522 12.63183 33 ft 22 kts 221°
2026-04-23 14:30 55.60406 12.63158 33 ft 18 kts 137°
2026-04-23 14:30 55.60351 12.63350 35 ft 16 kts 69°
2026-04-23 14:30 55.60380 12.63414 35 ft 0 kts 40°
2026-04-23 14:30 55.60381 12.63414 35 ft 0 kts 40°
2026-04-23 14:32 55.60541 12.63657 34 ft 73 kts 40°
2026-04-23 14:33 55.61125 12.64550 37 ft 145 kts 43°
2026-04-23 14:33 55.61940 12.65677 589 ft 155 kts 33°
2026-04-23 14:33 55.62799 12.66907 1226 ft 156 kts 34°
2026-04-23 14:33 55.63584 12.68193 1984 ft 151 kts 37°
2026-04-23 14:34 55.64294 12.69422 2744 ft 145 kts 37°
2026-04-23 14:34 55.64941 12.70746 3505 ft 132 kts 41°
2026-04-23 14:34 55.65571 12.71819 4156 ft 133 kts 33°
2026-04-23 14:34 55.66343 12.72878 4537 ft 146 kts 30°
2026-04-23 14:35 55.67178 12.74097 4831 ft 173 kts 32°
2026-04-23 14:35 55.68248 12.75557 5000 ft 212 kts 31°
2026-04-23 14:35 55.69535 12.77242 5261 ft 245 kts 32°
2026-04-23 14:35 55.70703 12.79271 5955 ft 256 kts 49°
2026-04-23 14:36 55.71433 12.82191 6750 ft 271 kts 71°
2026-04-23 14:36 55.71508 12.85601 7487 ft 285 kts 93°
2026-04-23 14:36 55.70869 12.88986 8221 ft 297 kts 114°
2026-04-23 14:36 55.69570 12.91893 8920 ft 307 kts 135°
2026-04-23 14:37 55.67750 12.93933 9579 ft 314 kts 156°
2026-04-23 14:37 55.65631 12.94821 10205 ft 314 kts 178°
2026-04-23 14:37 55.63477 12.94445 10868 ft 312 kts 196°
2026-04-23 14:37 55.61360 12.93437 11641 ft 322 kts 201°
2026-04-23 14:38 55.59243 12.91741 12038 ft 347 kts 214°
2026-04-23 14:38 55.57317 12.89017 12450 ft 364 kts 230°
2026-04-23 14:38 55.55709 12.85502 12925 ft 373 kts 237°
2026-04-23 14:38 55.54148 12.81827 13492 ft 380 kts 236°
2026-04-23 14:39 55.52612 12.78069 14445 ft 378 kts 242°
2026-04-23 14:39 55.51561 12.73844 15117 ft 375 kts 258°
2026-04-23 14:39 55.51173 12.69332 15854 ft 372 kts 270°
2026-04-23 14:39 55.51079 12.64763 16529 ft 375 kts 273°
2026-04-23 14:40 55.50986 12.60143 17143 ft 382 kts 271°
2026-04-23 14:40 55.50787 12.55348 17359 ft 397 kts 269°
2026-04-23 14:40 55.50546 12.50502 18076 ft 397 kts 269°
2026-04-23 14:40 55.50361 12.45615 18627 ft 400 kts 271°
2026-04-23 14:41 55.50202 12.40703 19131 ft 403 kts 271°
2026-04-23 14:41 55.50013 12.35815 19609 ft 406 kts 270°
2026-04-23 14:41 55.49798 12.30828 20088 ft 408 kts 270°
2026-04-23 14:41 55.49398 12.25842 20439 ft 418 kts 261°
2026-04-23 14:42 55.48322 12.21038 20939 ft 426 kts 246°
2026-04-23 14:42 55.46667 12.16651 21328 ft 433 kts 237°
2026-04-23 14:42 55.44753 12.12520 21735 ft 437 kts 233°
2026-04-23 14:42 55.42779 12.08438 22107 ft 439 kts 234°
2026-04-23 14:43 55.40922 12.04171 22490 ft 439 kts 238°
2026-04-23 14:43 55.39164 11.99775 22852 ft 441 kts 239°
2026-04-23 14:43 55.37359 11.95478 23216 ft 444 kts 236°
2026-04-23 14:43 55.35449 11.91202 23572 ft 446 kts 235°
2026-04-23 14:44 55.33539 11.86873 23880 ft 448 kts 236°
2026-04-23 14:44 55.31676 11.82484 24161 ft 450 kts 237°
2026-04-23 14:44 55.29799 11.78076 24435 ft 451 kts 236°
2026-04-23 14:44 55.27889 11.73703 24710 ft 452 kts 236°
2026-04-23 14:45 55.25963 11.69325 24989 ft 453 kts 236°
2026-04-23 14:45 55.24172 11.64818 25266 ft 450 kts 240°
2026-04-23 14:45 55.22516 11.60247 25555 ft 451 kts 241°
2026-04-23 14:45 55.20826 11.55612 25842 ft 452 kts 240°
2026-04-23 14:46 55.19106 11.51001 26130 ft 453 kts 240°
2026-04-23 14:46 55.17380 11.46390 26425 ft 453 kts 240°
2026-04-23 14:46 55.15664 11.41754 26728 ft 453 kts 240°
2026-04-23 14:46 55.13953 11.37128 26957 ft 455 kts 240°
2026-04-23 14:47 55.12223 11.32494 27341 ft 453 kts 239°
2026-04-23 14:47 55.10500 11.27898 27683 ft 452 kts 239°
2026-04-23 14:47 55.08781 11.23303 27995 ft 452 kts 239°
2026-04-23 14:47 55.07085 11.18768 28330 ft 452 kts 239°
2026-04-23 14:48 55.05364 11.14187 28644 ft 451 kts 239°
2026-04-23 14:48 55.03643 11.09620 28954 ft 451 kts 239°
2026-04-23 14:48 55.01923 11.05056 29273 ft 450 kts 239°
2026-04-23 14:48 55.00206 11.00507 29602 ft 450 kts 239°
2026-04-23 14:49 54.98481 10.95947 29923 ft 450 kts 239°
2026-04-23 14:49 54.96756 10.91400 30233 ft 449 kts 239°
2026-04-23 14:49 54.95037 10.86874 30510 ft 449 kts 239°
2026-04-23 14:49 54.93433 10.82321 30687 ft 447 kts 242°
2026-04-23 14:50 54.91820 10.77617 31000 ft 446 kts 241°
2026-04-23 14:50 54.90235 10.73084 31296 ft 445 kts 241°
2026-04-23 14:50 54.88635 10.68486 31572 ft 444 kts 241°
2026-04-23 14:50 54.87054 10.63897 31861 ft 443 kts 241°
2026-04-23 14:51 54.85471 10.59323 32137 ft 442 kts 241°
2026-04-23 14:51 54.83879 10.54766 32427 ft 441 kts 241°
2026-04-23 14:51 54.82293 10.50230 32704 ft 440 kts 241°
2026-04-23 14:51 54.80715 10.45704 32991 ft 439 kts 241°
2026-04-23 14:52 54.79130 10.41169 33262 ft 438 kts 241°
2026-04-23 14:52 54.77571 10.36727 33531 ft 437 kts 240°
2026-04-23 14:52 54.75989 10.32228 33798 ft 437 kts 240°
2026-04-23 14:52 54.74405 10.27724 33914 ft 439 kts 240°
2026-04-23 14:53 54.71421 10.19252 33933 ft 436 kts 240°
2026-04-23 14:53 54.68255 10.10318 33973 ft 436 kts 240°
2026-04-23 14:54 54.65086 10.01397 33984 ft 436 kts 240°
2026-04-23 14:54 54.61907 9.92487 33981 ft 436 kts 240°
2026-04-23 14:55 54.58742 9.83644 33987 ft 436 kts 240°
2026-04-23 14:55 54.55543 9.74744 33981 ft 437 kts 240°
2026-04-23 14:56 54.52333 9.65838 33985 ft 438 kts 240°
2026-04-23 14:56 54.49111 9.56937 33984 ft 439 kts 240°
2026-04-23 14:57 54.45874 9.48022 33994 ft 442 kts 239°
2026-04-23 14:57 54.42627 9.39116 34109 ft 443 kts 239°
2026-04-23 14:58 54.40986 9.34626 34238 ft 445 kts 239°
2026-04-23 14:58 54.39332 9.30107 34303 ft 448 kts 239°
2026-04-23 14:58 54.36012 9.21064 34202 ft 444 kts 239°
2026-04-23 14:59 54.34380 9.16635 34027 ft 439 kts 239°
2026-04-23 14:59 54.32739 9.12185 34042 ft 444 kts 238°
2026-04-23 14:59 54.31082 9.07698 34190 ft 446 kts 238°
2026-04-23 14:59 54.29439 9.03258 34241 ft 449 kts 238°
2026-04-23 15:00 54.26105 8.94278 34280 ft 447 kts 238°
2026-04-23 15:00 54.22765 8.85312 34285 ft 447 kts 238°
2026-04-23 15:01 54.19423 8.76373 34296 ft 447 kts 238°
2026-04-23 15:01 54.16071 8.67437 34308 ft 447 kts 237°
2026-04-23 15:02 54.12716 8.58529 34312 ft 446 kts 237°
2026-04-23 15:02 54.09379 8.49698 34316 ft 446 kts 237°
2026-04-23 15:03 54.06011 8.40818 34323 ft 446 kts 237°
2026-04-23 15:03 54.02640 8.31958 34324 ft 446 kts 236°
2026-04-23 15:04 53.99256 8.23097 34326 ft 447 kts 236°
2026-04-23 15:04 53.95866 8.14255 34336 ft 447 kts 236°
2026-04-23 15:05 53.92469 8.05423 34339 ft 446 kts 236°
2026-04-23 15:05 53.89071 7.96619 34341 ft 447 kts 236°
2026-04-23 15:06 53.85685 7.87881 34347 ft 446 kts 236°
2026-04-23 15:06 53.82274 7.79102 34354 ft 446 kts 235°
2026-04-23 15:07 53.78860 7.70352 34358 ft 446 kts 235°
2026-04-23 15:07 53.75448 7.61636 34467 ft 444 kts 235°
2026-04-23 15:08 53.72037 7.52954 34659 ft 443 kts 234°
2026-04-23 15:09 53.66930 7.40007 34975 ft 444 kts 234°
2026-04-23 15:09 53.63490 7.31327 34793 ft 441 kts 234°
2026-04-23 15:09 53.61794 7.27051 34626 ft 439 kts 234°
2026-04-23 15:10 53.60664 7.24214 34587 ft 442 kts 234°
2026-04-23 15:10 53.56648 7.14149 34624 ft 444 kts 234°
2026-04-23 15:11 53.53225 7.05594 34626 ft 443 kts 233°
2026-04-23 15:11 53.49779 6.97017 34624 ft 443 kts 233°
2026-04-23 15:12 53.46326 6.88445 34633 ft 443 kts 233°
2026-04-23 15:12 53.42866 6.79897 34641 ft 443 kts 233°
2026-04-23 15:13 53.39405 6.71364 34647 ft 443 kts 233°
2026-04-23 15:13 53.35974 6.62937 34654 ft 443 kts 233°
2026-04-23 15:14 53.32498 6.54429 34650 ft 443 kts 233°
2026-04-23 15:14 53.29020 6.45944 34653 ft 443 kts 233°
2026-04-23 15:15 53.25533 6.37465 34652 ft 442 kts 233°
2026-04-23 15:15 53.22044 6.29010 34657 ft 442 kts 233°
2026-04-23 15:16 53.18549 6.20570 34663 ft 442 kts 233°
2026-04-23 15:16 53.15072 6.12200 34678 ft 442 kts 233°
2026-04-23 15:17 53.11568 6.03793 34681 ft 442 kts 232°
2026-04-23 15:17 53.08062 5.95408 34683 ft 442 kts 232°
2026-04-23 15:18 53.04544 5.87023 34684 ft 442 kts 232°
2026-04-23 15:18 53.01022 5.78657 34684 ft 442 kts 232°
2026-04-23 15:19 52.97521 5.70372 34686 ft 441 kts 232°
2026-04-23 15:19 52.94000 5.62059 34688 ft 441 kts 232°
2026-04-23 15:20 52.92825 5.59293 34688 ft 441 kts 232°